User: anonymous   Login
Location: Aix-en-Ergny
(50.5839°N, 1.9996°E)
Time: 13:12:43
(UTC+00:00)
Language:

Cosmos 2341 Rocket - Orbit

View from above orbital plane
View from above orbital plane
View from above satellite
View from above satellite

Ground track
Ground track

The orbit data is extracted from the following two-line orbital elements,

1 24773U 97017B   19349.83630432  .00000053  00000-0  40395-4 0  9995
2 24773  82.9229  57.8710 0023033 287.6918 209.8482 13.73642544136054
Epoch (UTC): 15 December 2019 20:04:16
Eccentricity: 0.0023033
inclination: 82.9229°
perigee height: 969 km
apogee height: 1003 km
right ascension of ascending node: 57.8710°
argument of perigee: 287.6918°
revolutions per day: 13.73642544
mean anomaly at epoch: 209.8482°
orbit number at epoch: 13605

The dashed part of the orbit path shows where the satellite is in the earth's shadow,  

DLR